VOE13D LZIB-LUKK

Flight info

Callsign VOE13D
Flight time N/A
Altitude 23000
Route NIT M748 ERGOM/N0443F370 DCT EPARI DCT NIPUR DCT BADOR DCT ARPIG DCT UNIRA
Aircraft A320/M-SDE3FGHIRWY/LB1

Departure

Time 2026-05-04 18:33
Airport M. R. Štefánik Airport (LZIB)

Arrival

Time N/A
Airport Chişinău International Airport (LUKK)
Time Latitude Longitude Altitude Speed Heading
2026-05-04 18:06 48.17005 17.20228 444 ft 0 kts 312°
2026-05-04 18:14 48.17005 17.20229 443 ft 0 kts 312°
2026-05-04 18:24 48.16994 17.20246 427 ft 2 kts 312°
2026-05-04 18:25 48.16983 17.20264 434 ft 2 kts 312°
2026-05-04 18:25 48.16970 17.20282 432 ft 3 kts 343°
2026-05-04 18:25 48.16954 17.20284 428 ft 1 kts 15°
2026-05-04 18:26 48.16955 17.20285 428 ft 1 kts 15°
2026-05-04 18:26 48.16989 17.20314 439 ft 13 kts 39°
2026-05-04 18:26 48.17091 17.20461 443 ft 24 kts 44°
2026-05-04 18:26 48.17234 17.20548 442 ft 24 kts 324°
2026-05-04 18:27 48.17331 17.20407 432 ft 18 kts 312°
2026-05-04 18:27 48.17369 17.20349 442 ft 0 kts 316°
2026-05-04 18:27 48.17369 17.20348 442 ft 0 kts 316°
2026-05-04 18:28 48.17392 17.20323 442 ft 0 kts 329°
2026-05-04 18:29 48.17394 17.20322 442 ft 1 kts 329°
2026-05-04 18:29 48.17400 17.20316 442 ft 1 kts 329°
2026-05-04 18:29 48.17411 17.20308 440 ft 2 kts 344°
2026-05-04 18:29 48.17444 17.20305 442 ft 6 kts
2026-05-04 18:30 48.17471 17.20310 442 ft 0 kts
2026-05-04 18:30 48.17499 17.20330 442 ft 17 kts 34°
2026-05-04 18:31 48.17495 17.20515 436 ft 10 kts 118°
2026-05-04 18:31 48.17480 17.20541 438 ft 0 kts 132°
2026-05-04 18:32 48.17465 17.20567 439 ft 17 kts 132°
2026-05-04 18:32 48.17160 17.21039 439 ft 121 kts 134°
2026-05-04 18:33 48.16382 17.22239 987 ft 175 kts 136°
2026-05-04 18:33 48.15432 17.23700 1993 ft 200 kts 139°
2026-05-04 18:33 48.14469 17.25195 3299 ft 200 kts 139°
2026-05-04 18:33 48.13501 17.26698 4604 ft 200 kts 139°
2026-05-04 18:34 48.12583 17.28293 5724 ft 211 kts 127°
2026-05-04 18:34 48.12043 17.30498 6472 ft 245 kts 98°
2026-05-04 18:34 48.12297 17.33162 7243 ft 274 kts 70°
2026-05-04 18:34 48.13041 17.35907 8227 ft 291 kts 69°
2026-05-04 18:35 48.13773 17.38763 9451 ft 297 kts 76°
2026-05-04 18:35 48.14000 17.41912 10254 ft 317 kts 98°
2026-05-04 18:35 48.13640 17.44125 10654 ft 332 kts 112°
2026-05-04 18:35 48.12525 17.48626 11380 ft 365 kts 113°
2026-05-04 18:36 48.11911 17.51037 11677 ft 382 kts 113°
2026-05-04 18:36 48.10937 17.54861 12106 ft 403 kts 113°
2026-05-04 18:36 48.09931 17.58844 12899 ft 413 kts 112°
2026-05-04 18:36 48.08913 17.62907 13801 ft 419 kts 112°
2026-05-04 18:37 48.07965 17.66726 14542 ft 424 kts 112°
2026-05-04 18:37 48.06935 17.70888 15316 ft 429 kts 112°
2026-05-04 18:37 48.05887 17.75118 15762 ft 441 kts 112°
2026-05-04 18:37 48.04869 17.79213 16308 ft 446 kts 112°
2026-05-04 18:38 48.03776 17.83582 16917 ft 451 kts 112°
2026-05-04 18:38 48.02667 17.87992 17516 ft 455 kts 112°
2026-05-04 18:38 48.01560 17.92388 18086 ft 458 kts 112°
2026-05-04 18:38 48.00420 17.96907 18588 ft 462 kts 111°
2026-05-04 18:39 47.99282 18.01415 19044 ft 465 kts 111°
2026-05-04 18:39 47.98149 18.05898 19486 ft 468 kts 111°
2026-05-04 18:39 47.96993 18.10464 19924 ft 471 kts 111°
2026-05-04 18:39 47.95832 18.15044 20343 ft 474 kts 111°
2026-05-04 18:40 47.94658 18.19664 20736 ft 477 kts 111°
2026-05-04 18:40 47.93474 18.24306 21116 ft 479 kts 111°
2026-05-04 18:40 47.92283 18.28964 21473 ft 482 kts 111°
2026-05-04 18:40 47.91085 18.33646 21814 ft 484 kts 111°
2026-05-04 18:41 47.89879 18.38349 22138 ft 487 kts 111°
2026-05-04 18:41 47.88668 18.43064 22416 ft 489 kts 111°
2026-05-04 18:41 47.87448 18.47802 22676 ft 490 kts 111°
2026-05-04 18:41 47.86225 18.52538 22901 ft 491 kts 111°
2026-05-04 18:42 47.84996 18.57296 23113 ft 493 kts 111°
2026-05-04 18:42 47.83764 18.62056 23282 ft 494 kts 111°
2026-05-04 18:42 47.82522 18.66844 23448 ft 495 kts 111°
2026-05-04 18:42 47.81248 18.71602 23579 ft 495 kts 115°
2026-05-04 18:43 47.79503 18.76001 23707 ft 495 kts 126°
2026-05-04 18:43 47.77483 18.80070 23825 ft 495 kts 127°
2026-05-04 18:43 47.75431 18.84192 23944 ft 495 kts 127°
2026-05-04 18:43 47.73544 18.87975 24047 ft 495 kts 127°
2026-05-04 18:44 47.71510 18.92089 24164 ft 495 kts 125°
2026-05-04 18:44 47.70345 18.95081 24284 ft 495 kts 115°
2026-05-04 18:44 47.69051 19.01483 24873 ft 487 kts 98°
2026-05-04 18:44 47.68928 19.06454 25349 ft 482 kts 87°
2026-05-04 18:45 47.69082 19.11428 25842 ft 479 kts 86°
2026-05-04 18:45 47.69245 19.16411 26344 ft 477 kts 86°
2026-05-04 18:45 47.69411 19.21252 26851 ft 475 kts 86°
2026-05-04 18:45 47.69577 19.26136 27367 ft 473 kts 86°
2026-05-04 18:46 47.69740 19.31058 27899 ft 472 kts 86°
2026-05-04 18:46 47.69880 19.35421 28380 ft 471 kts 86°
2026-05-04 18:46 47.70029 19.40279 28929 ft 470 kts 86°
2026-05-04 18:46 47.70172 19.45116 29487 ft 469 kts 86°
2026-05-04 18:47 47.70313 19.49951 30056 ft 467 kts 86°
2026-05-04 18:47 47.70452 19.54770 30557 ft 466 kts 86°
2026-05-04 18:47 47.70589 19.59573 31051 ft 465 kts 86°
2026-05-04 18:47 47.70725 19.64361 31556 ft 464 kts 86°
2026-05-04 18:48 47.70861 19.69143 32070 ft 462 kts 86°
2026-05-04 18:48 47.70997 19.73894 32596 ft 461 kts 86°
2026-05-04 18:48 47.71131 19.78641 33133 ft 459 kts 86°
2026-05-04 18:48 47.71262 19.83375 33672 ft 458 kts 86°
2026-05-04 18:49 47.71389 19.88109 34208 ft 456 kts 86°
2026-05-04 18:49 47.71509 19.92741 34682 ft 455 kts 86°
2026-05-04 18:49 47.71627 19.97427 35176 ft 454 kts 86°
2026-05-04 18:49 47.71670 20.02098 35679 ft 453 kts 92°
2026-05-04 18:50 47.71402 20.06773 36187 ft 452 kts 94°
2026-05-04 18:50 47.71143 20.11076 36684 ft 451 kts 94°
2026-05-04 18:50 47.70862 20.15729 37000 ft 454 kts 94°
2026-05-04 18:51 47.70287 20.25219 37061 ft 468 kts 94°
2026-05-04 18:51 47.69687 20.34889 37065 ft 472 kts 94°
2026-05-04 18:52 47.69079 20.44597 37064 ft 472 kts 94°
2026-05-04 18:52 47.68462 20.54317 37062 ft 472 kts 94°
2026-05-04 18:53 47.67843 20.63949 37063 ft 472 kts 94°
2026-05-04 18:53 47.67215 20.73666 37070 ft 473 kts 94°
2026-05-04 18:54 47.66569 20.83360 37071 ft 473 kts 94°
2026-05-04 18:54 47.65915 20.93084 37077 ft 473 kts 94°
2026-05-04 18:55 47.65257 21.02789 37078 ft 473 kts 94°
2026-05-04 18:55 47.64262 21.17285 37084 ft 472 kts 94°
2026-05-04 18:56 47.63585 21.26976 37080 ft 472 kts 94°
2026-05-04 18:56 47.62895 21.36671 37077 ft 472 kts 94°
2026-05-04 18:57 47.62196 21.46359 37075 ft 472 kts 94°
2026-05-04 18:57 47.61497 21.55971 37076 ft 472 kts 94°
2026-05-04 18:58 47.60789 21.65611 37076 ft 472 kts 94°
2026-05-04 18:58 47.60073 21.75278 37078 ft 472 kts 94°
2026-05-04 18:59 47.59348 21.84959 37080 ft 472 kts 94°
2026-05-04 18:59 47.58620 21.94616 37087 ft 472 kts 94°
2026-05-04 19:00 47.57874 22.04255 37087 ft 472 kts 94°
2026-05-04 19:00 47.57166 22.13582 37089 ft 471 kts 92°
2026-05-04 19:01 47.56856 22.23251 37089 ft 470 kts 89°
2026-05-04 19:01 47.56787 22.32932 37095 ft 470 kts 88°
2026-05-04 19:02 47.56642 22.42602 37099 ft 470 kts 90°
2026-05-04 19:02 47.56374 22.52278 37093 ft 470 kts 90°
2026-05-04 19:03 47.56071 22.61892 37090 ft 470 kts 90°
2026-05-04 19:03 47.55786 22.71578 37085 ft 470 kts 90°
2026-05-04 19:04 47.55518 22.81245 37086 ft 470 kts 90°
2026-05-04 19:04 47.55242 22.90907 37087 ft 470 kts 90°
2026-05-04 19:05 47.54948 23.00488 37092 ft 470 kts 90°
2026-05-04 19:05 47.54641 23.10249 37090 ft 470 kts 91°
2026-05-04 19:06 47.54327 23.19914 37106 ft 470 kts 91°
2026-05-04 19:06 47.54004 23.29578 37107 ft 470 kts 91°
2026-05-04 19:07 47.53682 23.39179 37109 ft 470 kts 91°
2026-05-04 19:07 47.53348 23.48852 37110 ft 470 kts 91°
2026-05-04 19:08 47.53005 23.58512 37113 ft 470 kts 91°
2026-05-04 19:08 47.52649 23.68187 37114 ft 470 kts 91°
2026-05-04 19:09 47.52290 23.77855 37115 ft 470 kts 91°
2026-05-04 19:09 47.51924 23.87513 37120 ft 471 kts 91°
2026-05-04 19:10 47.51552 23.97189 37125 ft 471 kts 91°
2026-05-04 19:10 47.51169 24.06850 37130 ft 471 kts 91°
2026-05-04 19:11 47.50770 24.16531 37133 ft 471 kts 91°
2026-05-04 19:11 47.50370 24.26217 37128 ft 471 kts 92°
2026-05-04 19:12 47.49750 24.40664 37132 ft 471 kts 92°
2026-05-04 19:13 47.49324 24.50345 37134 ft 472 kts 92°
2026-05-04 19:13 47.48897 24.60014 37136 ft 471 kts 92°
2026-05-04 19:14 47.48465 24.69699 37141 ft 472 kts 92°
2026-05-04 19:14 47.48023 24.79369 37141 ft 471 kts 92°
2026-05-04 19:15 47.47569 24.89015 37140 ft 471 kts 92°
2026-05-04 19:15 47.47110 24.98616 37143 ft 471 kts 92°
2026-05-04 19:16 47.46637 25.08307 37139 ft 471 kts 92°
2026-05-04 19:16 47.46158 25.17972 37140 ft 471 kts 92°
2026-05-04 19:17 47.45668 25.27618 37136 ft 470 kts 92°
2026-05-04 19:17 47.45172 25.37201 37130 ft 470 kts 92°
2026-05-04 19:18 47.44668 25.46902 37124 ft 470 kts 92°
2026-05-04 19:18 47.44159 25.56466 37118 ft 470 kts 92°
2026-05-04 19:19 47.43641 25.66097 37111 ft 470 kts 92°
2026-05-04 19:19 47.43384 25.70885 36950 ft 464 kts 92°
2026-05-04 19:19 47.43127 25.75576 36494 ft 452 kts 93°
2026-05-04 19:19 47.42871 25.80166 35797 ft 446 kts 93°
2026-05-04 19:20 47.42615 25.84720 35265 ft 444 kts 92°
2026-05-04 19:20 47.42364 25.89236 35073 ft 444 kts 92°
2026-05-04 19:20 47.42111 25.93747 35072 ft 444 kts 93°
2026-05-04 19:21 47.41598 26.02849 35072 ft 445 kts 93°
2026-05-04 19:21 47.41339 26.07379 34720 ft 442 kts 93°
2026-05-04 19:21 47.41075 26.11897 33780 ft 442 kts 93°
2026-05-04 19:21 47.40807 26.16426 32672 ft 444 kts 93°
2026-05-04 19:22 47.40538 26.20971 31547 ft 445 kts 93°
2026-05-04 19:22 47.40267 26.25532 30389 ft 447 kts 93°
2026-05-04 19:22 47.40085 26.28563 29510 ft 448 kts 93°
2026-05-04 19:22 47.39719 26.34705 27584 ft 450 kts 93°
2026-05-04 19:23 47.39536 26.37754 26595 ft 451 kts 93°
2026-05-04 19:23 47.39257 26.42383 25067 ft 453 kts 93°
2026-05-04 19:23 47.38974 26.47021 23454 ft 455 kts 93°
2026-05-04 19:23 47.38688 26.51688 21556 ft 458 kts 93°
2026-05-04 19:24 47.38398 26.56385 19994 ft 458 kts 92°
2026-05-04 19:24 47.38111 26.60993 19158 ft 442 kts 92°
2026-05-04 19:24 47.37829 26.65447 17884 ft 435 kts 92°
2026-05-04 19:24 47.37551 26.69889 16513 ft 433 kts 92°
2026-05-04 19:25 47.37286 26.74088 15640 ft 422 kts 92°
2026-05-04 19:25 47.37017 26.78274 14665 ft 411 kts 92°
2026-05-04 19:25 47.36745 26.82468 13739 ft 408 kts 92°
2026-05-04 19:25 47.36648 26.83958 13548 ft 408 kts 92°
2026-05-04 19:26 47.36558 26.85353 13877 ft 399 kts 92°
2026-05-04 19:26 47.36289 26.89502 13581 ft 407 kts 92°
2026-05-04 19:26 47.36053 26.93552 13257 ft 384 kts 91°
2026-05-04 19:26 47.35848 26.97433 13078 ft 375 kts 91°
2026-05-04 19:27 47.35626 27.01232 13020 ft 369 kts 92°
2026-05-04 19:27 47.35392 27.04976 13041 ft 363 kts 92°
2026-05-04 19:27 47.35152 27.08673 13042 ft 361 kts 92°
2026-05-04 19:27 47.34908 27.12351 13042 ft 359 kts 92°
2026-05-04 19:28 47.34663 27.16005 13042 ft 358 kts 92°
2026-05-04 19:28 47.34416 27.19655 13033 ft 357 kts 92°
2026-05-04 19:28 47.34168 27.23301 13043 ft 357 kts 92°
2026-05-04 19:28 47.33916 27.26940 13047 ft 357 kts 93°
2026-05-04 19:29 47.33404 27.30548 13044 ft 361 kts 103°
2026-05-04 19:29 47.32546 27.33926 12134 ft 351 kts 111°
2026-05-04 19:29 47.31470 27.37193 11407 ft 344 kts 111°
2026-05-04 19:29 47.30507 27.40308 10918 ft 335 kts 109°
2026-05-04 19:30 47.29648 27.43476 10434 ft 330 kts 105°
2026-05-04 19:30 47.28948 27.46669 9961 ft 324 kts 101°
2026-05-04 19:30 47.28431 27.49864 9477 ft 315 kts 98°
2026-05-04 19:30 47.27972 27.52946 9051 ft 298 kts 97°
2026-05-04 19:31 47.27618 27.55802 8650 ft 267 kts 94°
2026-05-04 19:31 47.27419 27.58265 8284 ft 248 kts 88°
2026-05-04 19:31 47.27514 27.61097 8041 ft 303 kts 80°
2026-05-04 19:31 47.27774 27.64253 8188 ft 311 kts 78°
2026-05-04 19:32 47.28100 27.67408 8479 ft 310 kts 77°
2026-05-04 19:32 47.28478 27.70463 9112 ft 300 kts 75°
2026-05-04 19:32 47.28958 27.73463 9393 ft 301 kts 75°
2026-05-04 19:32 47.29225 27.76231 9946 ft 238 kts 74°
2026-05-04 19:33 47.29437 27.78441 9456 ft 202 kts 77°
2026-05-04 19:33 47.29622 27.80415 8772 ft 190 kts 75°
2026-05-04 19:33 47.29848 27.82314 8107 ft 190 kts 72°
2026-05-04 19:33 47.30158 27.84209 7546 ft 189 kts 69°
2026-05-04 19:34 47.30576 27.86070 6706 ft 199 kts 64°
2026-05-04 19:34 47.31178 27.87978 5669 ft 211 kts 58°
2026-05-04 19:34 47.31977 27.89803 4843 ft 211 kts 52°